www.pogodaiklimat.ru
Время
(UTC), дата
23 19.01
22 19.01
00 20.01
01 20.01
02 20.01
03 20.01
05 20.01
04 20.01
06 20.01
07 20.01
08 20.01
09 20.01
11 20.01
10 20.01
12 20.01
13 20.01
14 20.01
15 20.01
17 20.01
16 20.01
18 20.01
19 20.01
20 20.01
21 20.01
23 20.01
22 20.01
00 21.01
01 21.01
02 21.01
03 21.01
05 21.01
04 21.01
06 21.01
07 21.01
08 21.01
09 21.01
11 21.01
10 21.01
12 21.01
13 21.01
14 21.01
15 21.01
17 21.01
16 21.01
18 21.01
19 21.01
20 21.01
21 21.01
23 21.01
22 21.01
00 22.01
01 22.01
02 22.01
03 22.01
05 22.01
04 22.01
06 22.01
07 22.01
08 22.01
09 22.01
11 22.01
10 22.01
12 22.01
13 22.01
14 22.01
15 22.01
17 22.01
16 22.01
18 22.01
19 22.01
20 22.01
21 22.01
23 22.01
22 22.01
00 23.01
01 23.01
02 23.01
03 23.01
05 23.01
04 23.01
06 23.01
07 23.01
08 23.01
09 23.01
11 23.01
10 23.01
12 23.01
13 23.01
14 23.01
15 23.01
17 23.01
16 23.01
18 23.01
19 23.01
20 23.01
21 23.01
23 23.01
22 23.01
00 24.01
01 24.01
02 24.01
03 24.01
05 24.01
04 24.01
06 24.01
07 24.01
08 24.01
09 24.01
11 24.01
10 24.01
12 24.01
13 24.01
14 24.01
15 24.01
17 24.01
16 24.01
18 24.01
19 24.01
20 24.01
21 24.01
23 24.01
22 24.01
00 25.01
01 25.01
02 25.01
03 25.01
05 25.01
04 25.01
06 25.01
09 25.01
10 25.01
11 25.01
12 25.01
14 25.01
13 25.01
15 25.01
16 25.01
17 25.01
18 25.01
20 25.01
19 25.01
21 25.01
22 25.01
23 25.01
00 26.01
02 26.01
01 26.01
03 26.01
04 26.01
05 26.01
06 26.01
08 26.01
07 26.01
09 26.01
10 26.01
11 26.01
12 26.01
14 26.01
13 26.01
15 26.01
16 26.01
17 26.01
18 26.01
20 26.01
19 26.01
21 26.01
Ветер
(напр.,м/с)
Видим. Явления Облачность Т
(С)
Тd
(С)
f
(%)
Тe
(С)
Тes
(С)
Комфортность P
(гПа)
Po
(гПа)
Тmin
(С)
Tmax
(С)
R
(мм)
R24
(мм)
S
(см)
З 1
{2}
15 км местами туман поземный 6/1 600 м
[Sc Cs]
-3.8 -4.6 94 -6 -6 прохладно 1039.4 990.4
СЗ 1
{1}
15 км местами туман поземный 5/1 600 м
[Sc Cs]
-3.4 -4.1 95 -6 -6 прохладно 1039.0 990.1
штиль 0
{1}
15 км 5/1 600 м
[Sc Ci fib]
-4.4 -5.2 94 -6 -6 по сезону 1040.0 990.9
З 1
{1}
15 км местами туман поземный 4/1 600 м
[Sc Ci fib]
-4.6 -5.4 94 -7 -7 по сезону 1040.7 991.5
штиль 0
{1}
12 км местами туман поземный 4/1 700 м
[Sc Ci fib]
-5.7 -6.9 91 -7 -7 по сезону 1041.7 992.2
З 1
{1}
12 км местами туман поземный 4/1 210 м
[Sc Ci fib]
-4.9 -5.7 94 -7 -7 по сезону 1041.9 992.6
З 1
{2}
15 км 8/1 210 м
[Sc Cs]
-4.5 -5.5 93 -7 -7 по сезону 1043.2 993.9
СЗ 1
{2}
12 км 6/1 210 м
[Sc Cs]
-4.9 -6.0 92 -7 -7 по сезону 1042.4 993.0
СЗ 1
{1}
8000 м дымка 8/4 30 м
[Sc Ci sp]
-4.9 -5.9 93 -7 -7 по сезону 1044.1 994.7 -5.7
З 1
{2}
10 км 8/6 90 м
[Sc Ci sp]
-5.4 -6.5 92 -8 -8 по сезону 1044.7 995.2
СЗ 1
{2}
15 км 8/5 300 м
[Sc Ci sp]
-3.6 -4.3 95 -6 -6 по сезону 1044.8 995.6
З 1
{2}
20 км 9/6 1000 м
[Cu Sc Ac trans Ci sp]
-1.4 -1.8 97 -4 -3 по сезону 1044.9 996.1
СЗ 1
{2}
20 км 9/4 700 м
[Cu Sc Ac trans Ci sp]
+1.5 +0.3 92 -0 +1 по сезону 1045.1 996.8
ЮВ 1
{2}
20 км 9/4 700 м
[Cu Sc Ac trans Ci sp]
0.0 -0.6 96 -2 -1 по сезону 1045.3 996.8
ЮВ 1
{3}
н/о н/о +3.9 -0.7 72 +3 +3 по сезону 1044.6 996.7
ЮВ 3
{5}
20 км 6/5 600 м
[Cu Sc Ac trans Ci fib]
+3.3 -1.6 70 -0 +1 по сезону 1044.5 996.5
ЮВ 3
{4}
20 км 9/9 600 м
[Cu Sc]
+3.1 -1.4 72 -1 -1 по сезону 1044.9 996.9
ЮВ 2
{5}
20 км 9/9 600 м
[Cu Sc]
+2.5 -1.6 74 -0 -0 по сезону 1045.7 997.5
СЗ 1
{2}
20 км 9/9 700 м
[Sc]
+0.9 -1.6 83 -1 -1 по сезону 1046.8 998.3
ЮВ 2
{4}
20 км 9/9 700 м
[Sc]
+1.9 -1.9 76 -1 -1 по сезону 1046.0 997.7
З 1
{2}
20 км 8/8 700 м
[Sc]
+0.5 -1.7 85 -1 -1 по сезону 1047.3 998.7 +4.2
З 2
{3}
20 км 8/8 700 м
[Sc]
+0.2 -1.7 87 -3 -3 по сезону 1047.9 999.2
З 2
{3}
20 км 9/9 1500 м
[Sc Ci fib]
+0.4 -1.7 86 -3 -3 по сезону 1048.2 999.5
СЗ 1
{2}
20 км 9/9 1380 м
[Sc]
+0.1 -1.8 87 -2 -2 по сезону 1048.4 999.7
З 2
{2}
20 км 9/9 1300 м
[Sc]
-1.2 -2.5 91 -5 -5 по сезону 1048.3 999.4
З 3
{3}
20 км 9/9 1300 м
[Sc]
-0.2 -1.9 88 -5 -5 по сезону 1048.3 999.6
С 1
{3}
20 км 5/5 1200 м
[Sc]
-3.6 -4.9 91 -6 -6 по сезону 1048.4 999.0
СЗ 3
{4}
20 км 1/1 1200 м
[Sc]
-3.9 -4.9 93 -9 -9 по сезону 1048.2 998.7
З 2
{3}
20 км 1/1 1200 м
[Sc]
-5.2 -6.4 91 -10 -10 по сезону 1048.0 998.3
ЮЗ 1
{1}
20 км 1/1 1200 м
[Sc Ci fib]
-4.8 -5.6 94 -7 -7 по сезону 1047.3 997.8
З 1
{2}
20 км ясно -6.3 -7.5 91 -9 -9 по сезону 1047.6 997.8
СЗ 1
{1}
20 км 1/1 1200 м
[Sc Ci fib]
-5.4 -6.4 93 -8 -8 по сезону 1047.3 997.6
З 2
{2}
20 км 1/1 600 м
[Sc Ci fib]
-6.6 -7.8 91 -11 -11 холодно 1047.7 997.8 -6.6
З 1
{2}
20 км 1/1 600 м
[Sc Ci fib]
-5.7 -6.6 93 -8 -8 по сезону 1047.5 997.7
штиль 0
{1}
20 км 4/4 600 м
[Sc Ci fib]
-3.8 -4.3 96 -5 -4 по сезону 1047.0 997.7
З 1
{1}
20 км 1/1 600 м
[Cu Sc]
-0.6 -2.2 89 -3 -0 по сезону 1046.3 997.6
ЮВ 1
{1}
20 км 1/1 900 м
[Cu hum]
+2.8 -3.1 65 +2 +6 тепло 1044.7 996.6
В 1
{2}
20 км 1/1 600 м
[Cu Sc]
+1.7 -2.4 74 0 +4 тепло 1045.7 997.4
З 1
{2}
20 км ясно +4.6 -2.7 59 +4 +8 по сезону 1043.3 995.6
В 1
{3}
20 км ясно +4.9 -2.6 58 +4 +7 тепло 1042.2 994.6
В 2
{2}
20 км ясно +4.5 -2.8 59 +2 +3 тепло 1041.8 994.2
В 1
{2}
20 км 1/0
[Ci fib]
+3.8 -2.6 63 +3 +3 тепло 1041.5 993.7
З 1
{2}
20 км 1/0
[Ci fib]
-2.4 -4.0 89 -5 -5 по сезону 1042.1 993.2
СЗ 1
{1}
20 км 1/0
[Ci fib]
-1.1 -3.5 84 -3 -3 по сезону 1041.8 993.2
З 1
{1}
20 км ясно -3.7 -5.0 91 -6 -6 прохладно 1042.2 993.1 +5.2
З 1
{2}
20 км ясно -4.0 -5.1 92 -6 -6 по сезону 1042.1 993.0
штиль 0
{1}
20 км ясно -4.9 -6.0 92 -6 -6 по сезону 1042.1 992.7
СЗ 1
{2}
20 км ясно -5.4 -6.8 90 -8 -8 прохладно 1041.6 992.3
штиль 0
{1}
20 км 1/0
[Ci fib]
-5.8 -6.9 92 -7 -7 по сезону 1041.1 991.7
З 1
{2}
20 км 1/0
[Ci fib]
-5.2 -6.0 94 -8 -8 по сезону 1041.2 991.9
штиль 0
{3}
20 км 1/0
[Ci fib]
-6.1 -7.2 92 -7 -7 по сезону 1040.2 990.8
штиль 0
{1}
20 км 5/0
[Cs]
-6.3 -7.5 91 -7 -7 по сезону 1039.8 990.3
З 1
{1}
20 км 8/0
[Cs]
-6.0 -7.1 92 -8 -8 по сезону 1039.1 989.7
штиль 0
{1}
20 км 5/0
[Cs]
-6.5 -7.7 91 -7 -7 по сезону 1038.4 989.0
штиль 0
{1}
20 км 4/0
[Ci sp]
-7.1 -8.5 90 -8 -8 по сезону 1036.9 987.4
ЮЗ 1
{1}
20 км 8/0
[Cs]
-6.2 -7.3 92 -9 -9 по сезону 1037.5 988.2
З 1
{2}
30 км 5/0
[Ac trans Ci sp]
-7.3 -8.4 92 -10 -10 прохладно 1037.0 987.5 -8.0
СЗ 1
{2}
30 км 6/0
[Ac trans Ci sp]
-7.6 -8.8 91 -10 -10 по сезону 1036.5 986.9
ЮЗ 1
{2}
30 км 4/0
[Ac trans Ci sp]
-4.2 -4.9 95 -7 -6 по сезону 1035.5 986.6
ЮВ 1
{1}
н/о н/о -0.6 -2.8 85 -3 -3 по сезону 1034.4 986.2
В 2
{2}
50 км 1/0
[Ci fib]
+4.1 -2.3 63 +2 +6 тепло 1032.1 984.8
ЮВ 1
{2}
50 км 1/0
[Ac trans Ci fib]
+1.6 -2.7 73 0 +4 тепло 1033.5 985.8
В 2
{2}
50 км 1/0
[Ci fib]
+6.6 -3.6 48 +5 +8 тепло 1030.6 983.8
В 1
{3}
50 км 1/0
[Ci fib]
+9.5 -5.1 35 +10 +12 тепло 1029.0 982.7
В 2
{3}
50 км 1/0
[Ci fib]
+9.8 -4.1 37 +9 +10 тепло 1028.3 982.1
В 1
{2}
50 км 1/0
[Ci fib]
+4.9 -2.9 57 +4 +4 тепло 1028.9 981.9
З 2
{3}
50 км 1/0
[Ci fib]
-0.8 -4.1 78 -4 -4 по сезону 1030.4 982.3
З 1
{1}
50 км 1/0
[Ci fib]
+0.2 -2.8 80 -2 -2 по сезону 1029.8 982.0
СЗ 2
{4}
30 км 1/0
[Ci fib]
-2.5 -5.3 81 -6 -6 прохладно 1031.1 982.7 +10.2
СЗ 1
{2}
30 км ясно -3.5 -5.5 86 -6 -6 по сезону 1031.7 983.2
З 1
{2}
30 км ясно -3.8 -5.5 88 -6 -6 по сезону 1032.4 983.8
З 1
{2}
30 км ясно -4.4 -6.4 86 -7 -7 прохладно 1033.6 984.8
штиль 0
{1}
30 км ясно -5.3 -7.0 88 -6 -6 по сезону 1035.6 986.5
СЗ 1
{3}
30 км ясно -5.1 -6.6 89 -8 -8 по сезону 1034.6 985.6
З 2
{2}
30 км ясно -5.5 -6.9 90 -10 -10 холодно 1036.2 987.1
СЗ 2
{3}
30 км ясно -6.3 -7.7 90 -11 -11 прохладно 1037.0 987.7
СЗ 2
{2}
30 км ясно -6.3 -7.4 92 -11 -11 по сезону 1037.7 988.3
СЗ 1
{2}
30 км ясно -7.0 -8.6 88 -9 -9 прохладно 1037.8 988.3
ЮЗ 1
{1}
30 км ясно -7.1 -8.0 93 -10 -10 прохладно 1038.2 988.7
штиль 0
{1}
30 км ясно -6.8 -8.2 90 -8 -8 по сезону 1037.9 988.4
З 1
{2}
30 км ясно -7.5 -8.9 90 -10 -10 прохладно 1038.9 989.2 -7.6
штиль 0
{2}
20 км 1/0
[Ac trans]
-7.5 -8.7 91 -8 -8 по сезону 1039.5 989.8
СЗ 1
{1}
15 км 6/6 800 м
[Sc]
-4.9 -6.0 92 -7 -7 по сезону 1039.5 990.3
З 1
{1}
15 км 9/9 800 м
[Sc]
-3.1 -4.2 92 -5 -5 по сезону 1039.5 990.7
ЮВ 1
{3}
20 км 9/9 800 м
[Sc]
+2.9 -3.2 64 +2 +2 тепло 1037.7 990.0
ЮЗ 1
{2}
15 км 8/8 800 м
[Sc]
-0.9 -2.8 87 -3 -2 по сезону 1039.0 990.6
С 1
{2}
15 км 9/9 700 м
[Sc]
+3.0 -3.1 64 +2 +2 по сезону 1037.0 989.3
ЮВ 2
{3}
15 км 6/6 700 м
[Sc]
+2.8 -3.1 65 0 +1 по сезону 1035.9 988.2
Ю 1
{3}
20 км 1/1 700 м
[Cu Sc]
+3.9 -3.3 59 +3 +4 тепло 1034.7 987.2
ЮВ 2
{2}
20 км ясно +2.7 -3.2 65 0 0 по сезону 1034.2 986.5
штиль 0
{1}
30 км ясно -2.5 -4.4 87 -4 -4 по сезону 1034.4 985.9
штиль 0
{1}
30 км ясно -1.3 -3.8 83 -2 -2 по сезону 1034.4 986.1
З 2
{3}
30 км ясно -4.1 -5.3 91 -8 -8 холодно 1034.6 985.8 +4.2
З 2
{3}
20 км ясно -4.1 -5.2 92 -8 -8 прохладно 1034.0 985.2
штиль 0
{1}
15 км ясно -4.8 -5.8 93 -6 -6 по сезону 1033.9 985.0
штиль 0
{2}
15 км ясно -5.1 -5.9 94 -6 -6 по сезону 1033.7 984.7
штиль 0
{1}
10 км местами туман поземный 1/0
[Ci fib]
-6.2 -7.3 92 -7 -7 по сезону 1033.3 984.1
штиль 0 10 км ясно -5.9 -7.0 92 -7 -7 по сезону 1033.7 984.6
З 1
{2}
10 км ясно -6.9 -8.3 90 -9 -9 прохладно 1033.0 983.7
З 1
{1}
15 км ясно -7.4 -8.6 91 -10 -10 прохладно 1032.5 983.2
штиль 0
{1}
10 км ясно -7.2 -8.3 92 -8 -8 по сезону 1031.9 982.6
СЗ 1
{1}
10 км ясно -8.1 -9.4 90 -11 -11 холодно 1031.6 982.2
штиль 0
{1}
10 км ясно -9.0 -10.6 88 -10 -10 прохладно 1031.1 981.5
штиль 0
{1}
10 км ясно -8.5 -10.0 89 -9 -9 по сезону 1031.4 981.9
штиль 0
{1}
10 км ясно -9.4 -10.9 89 -10 -10 прохладно 1031.1 981.5 -9.5
штиль 0
{1}
10 км 1/1 30 м
[St]
-9.4 -10.9 89 -10 -10 по сезону 1031.4 981.7
В 1
{1}
10 км местами туман поземный 1/1 30 м
[St]
-6.8 -7.5 95 -9 -8 по сезону 1031.3 982.1
В 1
{2}
10 км ясно -4.4 -5.4 93 -7 -4 прохладно 1030.7 982.0
В 1
{3}
20 км ясно +0.3 -3.4 76 -1 +3 по сезону 1028.8 981.0
ЮВ 1
{1}
10 км ясно -1.1 -3.3 85 -3 +1 по сезону 1029.8 981.7
В 1
{2}
15 км 1/0
[Ci fib]
+3.4 -2.7 64 +2 +6 по сезону 1027.5 980.3
В 1
{2}
20 км 1/0
[Ci fib]
+5.9 -2.4 55 +5 +8 тепло 1026.4 979.7
В 2
{2}
20 км 1/0
[Ci fib]
+6.0 -2.1 56 +4 +5 тепло 1026.0 979.3
В 1
{1}
30 км 1/0
[Ci fib]
+3.8 -1.9 66 +3 +3 по сезону 1025.9 978.8
СЗ 1
{2}
30 км 1/0
[Ci fib]
-1.7 -3.4 88 -4 -4 по сезону 1027.5 979.4
З 1
{2}
30 км 1/0
[Ci]
-0.2 -2.7 83 -2 -2 по сезону 1026.7 978.9
З 1
{3}
30 км 1/0
[Ci fib]
-2.3 -3.9 89 -5 -5 по сезону 1027.8 979.6 +6.3
З 1
{2}
30 км ясно -2.9 -4.2 91 -5 -5 по сезону 1028.1 979.8
З 3
{4}
30 км ясно -4.2 -5.6 90 -10 -10 прохладно 1028.5 979.9
З 3
{4}
н/о н/о -4.3 -5.3 93 -10 -10 холодно 1028.7 980.1
СЗ 4
{5}
30 км 9/0
[Ac und]
-1.5 -3.8 84 -7 -7 по сезону 1027.9 979.8
З 2
{4}
30 км 4/0
[Ci]
-3.7 -4.7 93 -8 -8 по сезону 1028.6 980.2
З 4
{6}
20 км 9/0
[Ac As]
-0.9 -3.7 81 -6 -6 по сезону 1027.1 979.2
З 2
{5}
20 км 8/0
[Ac As]
-1.7 -3.6 87 -6 -6 по сезону 1026.8 978.8
СЗ 2
{3}
20 км 5/0
[Ac As]
-1.7 -3.7 86 -6 -6 по сезону 1026.6 978.6
З 1
{6}
20 км 8/0
[Ac As Ci sp]
-1.6 -3.5 87 -4 -4 по сезону 1026.1 978.1
З 3
{5}
20 км 9/8 1080 м
[Sc Ac trans Ci sp]
+0.8 -3.1 75 -4 -4 по сезону 1025.3 977.8
З 5
{7}
20 км 8/1 1080 м
[Sc Ac As Ci sp]
-0.9 -3.6 82 -7 -7 по сезону 1025.8 978.0
СЗ 2
{6}
15 км слаб. дождь 10/10 1000 м
[Sc]
+1.2 -2.2 78 -2 -2 по сезону 1025.7 978.2 -4.6 0.0 0.0
ЮЗ 1
{1}
10 км слаб. дождь 10/10 1000 м
[Sc]
+1.5 +0.2 91 -0 -0 по сезону 1026.0 978.6
С 1
{2}
10 км слаб. дождь 10/10 1000 м
[Sc]
+3.3 +0.9 84 +2 +2 тепло 1025.6 978.5
В 2
{2}
15 км в посл. час дождь 10/6 1000 м
[Sc Ac As]
+4.4 +2.4 87 +2 +2 тепло 1024.7 977.8
В 3
{4}
20 км {дождь} 9/6 1000 м
[Cu Sc Ac As]
+6.7 +3.0 77 +4 +4 по сезону 1023.9 977.4 0.6
В 2
{3}
20 км 9/6 1380 м
[Sc Ac As]
+7.6 +2.9 72 +6 +6 тепло 1022.9 976.6
В 2
{3}
20 км 9/6 1000 м
[Cu Sc Ac As]
+7.9 +2.2 67 +6 +7 тепло 1023.0 976.8
ЮВ 3
{4}
20 км 8/4 1380 м
[Sc Ac As Ci fib]
+7.5 +3.0 73 +5 +5 тепло 1022.6 976.4
ЮВ 1
{3}
20 км 8/1 1380 м
[Sc Ac trans Ci fib]
+4.1 +2.1 87 +3 +3 тепло 1023.0 976.1
СЗ 1
{1}
20 км 8/4 1380 м
[Sc Ac trans Ci fib]
+1.7 +0.5 92 -0 -0 по сезону 1023.7 976.4
СЗ 2
{3}
20 км 9/6 1380 м
[Sc Ac trans Ci fib]
+1.2 +0.3 94 -2 -2 по сезону 1023.8 976.4 +8.5 0.6
З 2
{3}
20 км 8/8 1380 м
[Sc]
+0.3 -0.7 93 -3 -3 по сезону 1024.2 976.7
З 1
{2}
20 км 8/8 1380 м
[Sc Ac trans]
+0.5 -0.6 92 -2 -2 по сезону 1024.3 976.8
СЗ 1
{3}
20 км 9/9 1380 м
[Sc]
+0.9 +0.2 95 -1 -1 по сезону 1024.1 976.6
З 2
{3}
20 км 10/10 1380 м
[Sc]
+2.0 +1.0 93 -1 -1 по сезону 1023.7 976.5
В 1
{3}
20 км 9/9 1500 м
[Sc]
+1.8 +0.6 92 -0 -0 тепло 1023.6 976.4
С 2
{3}
20 км 9/6 1300 м
[Sc Ac trans]
+0.4 -0.6 93 -3 -3 по сезону 1023.6 976.1
З 1 20 км слаб. дождь 10/10 800 м
[Sc]
+1.6 +0.6 93 -0 -0 тепло 1023.1 975.9
штиль 0
{2}
20 км 9/8 900 м
[Sc Ac trans]
+1.1 +0.2 94 -0 -0 тепло 1023.4 976.1
ЮЗ 1
{2}
20 км слаб. дождь 10/10 800 м
[Sc]
+2.0 +1.3 95 0 0 по сезону 1022.6 975.4
ЮЗ 1 20 км в посл. час дождь 10/10 400 м
[Sc]
+1.7 +1.1 96 -0 -0 тепло 1022.6 975.4
З 2 20 км слаб. морось 9/9 400 м
[Sc]
+1.8 +1.2 96 -2 -2 тепло 1022.4 975.2
В 1
{2}
10 км в посл. час морось {дождь} 9/9 450 м
[Sc]
+1.4 +0.8 96 -1 -1 по сезону 1022.6 975.3 0.0 0.7 1.3
ЮЗ 1 5000 м слаб. дождь 10/10 90 м
[Sc]
+2.0 +1.6 97 0 0 тепло 1022.9 975.7
С 2 10 км 10/10 90 м
[Sc]
+1.6 +1.0 96 -2 -2 тепло 1022.9 975.7
штиль 0
{2}
4000 м слаб. дождь 10/10 90 м
[Sc]
+3.0 +2.6 97 +2 +2 тепло 1022.7 975.8
С 1 7000 м слаб. дождь 10/10 300 м
[Sc]
+4.1 +3.2 94 +3 +3 тепло 1022.6 975.8
штиль 0 10 км в посл. час дождь 10/10 90 м
[Sc]
+5.4 +4.2 92 +4 +4 тепло 1021.7 975.2
ЮВ 1
{2}
10 км 9/9 30 м
[Sc]
+6.1 +4.7 91 +5 +5 тепло 1020.8 974.5 2
ЮВ 1
{3}
10 км туман местами 6/6 90 м
[Sc]
+6.4 +5.2 92 +5 +6 тепло 1019.9 973.6
ЮВ 2
{2}
10 км 6/6 90 м
[Sc]
+6.0 +5.3 95 +3 +5 тепло 1020.2 973.8
ЮВ 2
{2}
10 км 5/5 60 м
[Sc]
+6.3 +4.9 91 +4 +4 тепло 1019.7 973.5
ЮВ 2
{3}
600 м туман 5/5 60 м
[Sc]
+3.7 +3.3 97 +1 +1 по сезону 1020.1 973.4
С 1
{1}
500 м туман 5/5 60 м
[Sc]
+2.8 +2.4 97 +1 +1 тепло 1020.5 973.6
СЗ 1
{1}
500 м туман ?/? +3.2 +2.8 97 +1 +1 по сезону 1020.3 973.5 +7.0 2
З 1
{2}
300 м туман ?/? +3.3 +2.9 97 +2 +2 тепло 1020.2 973.4
З 1
{2}
300 м туман ?/? +3.0 +2.6 97 +1 +1 тепло 1020.4 973.5
штиль 0
{1}
300 м туман ?/? +3.0 +2.7 98 +2 +2 тепло 1020.2 973.3
Местоположение метеостанции Любляна (Словения): широта 46.22 долгота 14.48 высота над уровнем моря 385 м.
В архиве по умолчанию представлена погода в Любляне за последнюю неделю. Архивные данные за месяц целиком и за предыдущие месяцы, начиная с января 2011 года, Вы можете получить, выбрав интересующий диапазон дат из раскрывающегося списка и нажав кнопку "Найти!".
*Определитесь, кто Вы:
Внимание! Время в таблицах - всемирное. Для получения местного времени необходимо прибавить поправку, которая равна 1 ч.
Смотрите также архив погоды в соседних городах и на ближайших метеорологических станциях:
Партнеры нашего сайта:      
Пояснения к столбцам:
  • Ветер - указаны скорость ветра в м/с - средняя за 10 мин, порывы в срок и между сроками (в фигурных скобках) и направление, откуда дует ветер: С - северный,
  • СВ - северо-восточный, В - восточный, ЮВ - юго-восточный, Ю - южный, ЮЗ - юго-западный, З - западный, СЗ - северо-западный.
  • Видимость - горизонтальная дальность видимости в метрах или километрах. При видимости от 1 до 10 км при отсутствии осадков обычно наблюдается дымка, при ухудшении видимости до 1 км и менее - туман. В сухую погоду видимость может ухудшаться дымом, пылью или мглою.
  • Явления - указаны атмосферные явления, наблюдавшиеся в срок или в последний час перед сроком; фигурными скобками обозначены явления, наблюдавшиеся между сроками (за 1-3 часа до срока); квадратными скобками обозначены град или гололедные отложения с указанием их диаметра в мм.
  • Облачность - указаны через наклонную черту общая и нижняя облачность в баллах и высота нижней границы облаков в метрах; квадратными скобками обозначены формы облаков: Ci - перистые, Cs - перисто-слоистые, Cc - перисто-кучевые, Ac - высококучевые, As - высокослоистые, Sc - слоисто-кучевые, Ns - слоисто-дождевые, Cu - кучевые, Cb - кучево-дождевые. Подробнее классификацию облаков см. в Атласе облаков (PDF).
  • T - Температура воздуха - температура, измеренная на высоте 2 м над землей.
  • Td - Температура точки росы - температура, при понижении до которой содержащийся в воздухе водяной пар достигнет насыщения.
  • f - Относительная влажность воздуха - влажноcть воздуха, измеренная на высоте 2 м над землей.
  • Te - Эффективная температура - температура, которую ощущает одетый по сезону человек в тени. Характеристика душности погоды. При расчете учитывается влияние влажности воздуха и скорости ветра на теплоощущения человека.
  • Tes - Эффективная температура на солнце - температура, которую ощущает человек, с поправкой на солнечный нагрев. Характеристика знойности погоды. Зависит от высоты солнца над горизонтом, облачности и скорости ветра. Ночью, в пасмурную погоду, а также при ветре 12 м/с и более поправка равна нулю.
  • P - Атмосферное давление - приведенное к уровню моря атмосферное давление.
  • Po - Атмосферное давление - измеренное на уровне метеостанции атмосферное давление.
  • Tmin - Минимальная температура - минимум температуры воздуха на высоте 2 м над землей.
  • Tmax - Максимальная температура - максимум температуры воздуха на высоте 2 м над землей.
  • R - Количество осадков - Количество выпавших осадков за период времени, мм. При наведении курсора мыши на число - период времени, за который выпало указанное количество осадков.
  • R24 - Количество осадков - Количество выпавших осадков за 24 часа, мм.
  • S - Снежный покров - Высота снежного покрова, см. При наведении курсора мыши на число - состояние снежного покрова и степень покрытия местности в баллах.